Weather History for North Las Vegas, NV

Change the Weather History Date:

Sunday, October 6, 2013

  Actual Average Record
Temperature  
Mean Temperature 66 °F -  
Max Temperature 81 °F 89 °F 99 °F (1960)
Min Temperature 52 °F 61 °F 41 °F (1951)
Cooling Degree Days 1    
Growing Degree Days 16 (Base 50)    
Moisture  
Dew Point 18 °F    
Average Humidity 17    
Maximum Humidity 30    
Minimum Humidity 7    
Precipitation  
Precipitation 0.00 in - - ()
Sea Level Pressure  
Sea Level Pressure 30.20 in    
Wind  
Wind Speed 3 mph (WNW)    
Max Wind Speed 7 mph    
Max Gust Speed -    
Visibility 10 miles    
Events      
Averages and records for this station are not official NWS values.
T = Trace of Precipitation, MM = Missing Value Source: NWS Daily Summary

Daily Weather History Graph

Daily Weather History Graph

Search for Another Location

Airport:

Trip Planner

Search our weather history database for the weather conditions in past years. The results will help you decide how hot, cold, wet, or windy it might be!

Date:

Astronomy

Oct. 06, 2013 Rise Set
Actual Time 6:40 AM PDT 6:16 PM PDT
Civil Twilight 6:14 AM PDT 6:42 PM PDT
Nautical Twilight 5:44 AM PDT 7:12 PM PDT
Astronomical Twilight 5:14 AM PDT 7:41 PM PDT
Moon 8:25 AM PDT (10/6) 7:23 PM PDT (10/6)
Length of Visible Light 12h 27m
Length of Day
11h 36m
Waxing Crescent, 4% of the Moon is Illuminated
Oct 6
Waxing Crescent
Oct 11
First Quarter
Oct 18
Full
Oct 26
Last Quarter
Nov 3
New

Hourly Weather History & Observations

Time (PDT) Temp. Dew Point Humidity Pressure Visibility Wind Dir Wind Speed Gust Speed Precip Events Conditions
12:53 AM 57.9 °F 18.0 °F 21% 30.29 in 10.0 mi NNW 5.8 mph - N/A   Clear
1:53 AM 57.0 °F 23.0 °F 27% 30.29 in 10.0 mi Calm Calm - N/A   Clear
2:53 AM 55.0 °F 23.0 °F 29% 30.28 in 10.0 mi WNW 5.8 mph - N/A   Clear
3:53 AM 55.0 °F 24.1 °F 30% 30.27 in 10.0 mi NW 5.8 mph - N/A   Clear
4:53 AM 55.0 °F 19.9 °F 25% 30.26 in 10.0 mi NW 4.6 mph - N/A   Clear
5:53 AM 55.0 °F 19.9 °F 25% 30.28 in 10.0 mi West 4.6 mph - N/A   Clear
6:53 AM 52.0 °F 17.1 °F 25% 30.29 in 10.0 mi Calm Calm - N/A   Clear
7:53 AM 57.0 °F 21.0 °F 25% 30.30 in 10.0 mi Calm Calm - N/A   Clear
8:53 AM 63.0 °F 23.0 °F 22% 30.32 in 10.0 mi Calm Calm - N/A   Clear
9:53 AM 66.9 °F 19.0 °F 16% 30.30 in 10.0 mi Calm Calm - N/A   Clear
10:53 AM 70.0 °F 18.0 °F 14% 30.28 in 10.0 mi Calm Calm - N/A   Clear
11:53 AM 73.9 °F 15.1 °F 11% 30.25 in 10.0 mi East 3.5 mph - N/A   Clear
12:53 PM 73.9 °F 14.0 °F 10% 30.22 in 10.0 mi Calm Calm - N/A   Clear
1:53 PM 75.9 °F 12.9 °F 9% 30.18 in 10.0 mi Calm Calm - N/A   Clear
2:53 PM 78.1 °F 12.0 °F 8% 30.14 in 10.0 mi South 3.5 mph - N/A   Clear
3:53 PM 80.1 °F 10.9 °F 7% 30.12 in 10.0 mi Calm Calm - N/A   Clear
4:53 PM 80.1 °F 10.9 °F 7% 30.11 in 10.0 mi West 3.5 mph - N/A   Clear
5:53 PM 79.0 °F 10.9 °F 8% 30.10 in 10.0 mi Calm Calm - N/A   Clear
6:53 PM 75.9 °F 16.0 °F 10% 30.11 in 10.0 mi WNW 3.5 mph - N/A   Clear
7:53 PM 69.1 °F 19.9 °F 15% 30.11 in 10.0 mi WNW 6.9 mph - N/A   Clear
8:53 PM 66.0 °F 21.0 °F 18% 30.10 in 10.0 mi Calm Calm - N/A   Clear
9:53 PM 64.9 °F 19.9 °F 18% 30.10 in 10.0 mi NW 5.8 mph - N/A   Clear
10:53 PM 63.0 °F 19.9 °F 19% 30.09 in 10.0 mi WNW 4.6 mph - N/A   Clear
11:53 PM 60.1 °F 19.0 °F 20% 30.08 in 10.0 mi Calm Calm - N/A   Clear